Tracking 32427 objects as of 11-Dec-2025
HD Live streaming from Space Station
objects crossing your sky now

STARLINK-31023

Track STARLINK-31023 now!
10-day predictions
STARLINK-31023 is classified as:


NORAD ID: 58522
Int'l Code: 2023-191Q
Perigee: 565.6 km
Apogee: 566.7 km
Inclination: 43.0 °
Period: 95.8 minutes
Semi major axis: 6937 km
RCS: Unknown
Launch date: December 7, 2023
Source: United States (US)
Launch site: AIR FORCE EASTERN TEST RANGE (AFETR)
Your satellite tracking list
Your tracking list is empty




NASA's NSSDC Master Catalog

Two Line Element Set (TLE):
1 58522U 23191Q   25344.09540538  .00003336  00000-0  26179-3 0  9993
2 58522  43.0032 232.8434 0000801 278.0760  81.9992 15.02550698111968
Source of the keplerian elements: AFSPC